Main page
METAR-TAF:

METAR-TAF

Airports :

Air Force Station

Cape Canaveral, Florida, United States

latitude: 28-28N, longitude: 080-33W, elevation: 10 ft

Current weather observation

The report was made 15 minutes ago, at 20:56 UTC
Wind 12 mph from the Southeast
Temperature 81°F
Humidity 70%
Pressure 30.17 in. Hg
Visibility: 10 miles
Clear sky

METAR: KXMR 272056Z AUTO 13010KT 10SM CLR 27/21 A3017 RMK AO2 SLP220 T02650205 57014 $

Time: 16:11 (21:11 UTC)


TAF: missing

Weather observations and forecasts of more than 4000 airports (METAR and TAF reports).

The available stations are represented by yellow and red dots on the map.

Hover mouse over dot to see the name of the station.

Then click to see weather observations and forecasts.

To change the map : click on the green buttons with a black cross to zoom in, on the green button with a dash to zoom out, or on the green arrows for adjacent maps.


METAR-TAF: